This demonstration page uses our WeatherBlox Daily Observations layout. Learn more.

40.92945, -100.16068

Hourly Observations for April 1, 2017

Temp ( °F °C ) Dew Point ( °F °C ) Humidity (%) Winds ( mph kmh ) Pressure ( in mb ) Visibility ( mi km ) Precip ( " mm )
12:15 am 00:15 Cloudy 43 6.1 38 3.6 84 84 N 5 7 30.15 1021 10 16.0934 0 0
12:35 am 00:35 Cloudy 41 5.2 37 3 86 86 N 6 9 30.15 1021 10 16.0934 0 0
12:55 am 00:55 Cloudy 41 5 37 3 87 87 N 7 11 30.15 1021 10 16.0934 0 0
1:15 am 01:15 Cloudy 41 5 37 2.8 86 86 N 8 13 30.15 1021 10 16.0934 0 0
1:35 am 01:35 Cloudy 41 4.8 37 2.6 86 86 NNE 7 11 30.15 1021 10 16.0934 0 0
1:55 am 01:55 Cloudy 41 5.1 37 2.8 85 85 NNE 5 7 30.15 1021 10 16.0934 0 0
2:15 am 02:15 Cloudy 42 5.7 37 2.8 82 82 N 9 15 30.15 1021 10 16.0934 0 0
2:35 am 02:35 Cloudy 42 5.5 37 2.8 83 83 N 10 17 30.15 1021 10 16.0934 0 0
2:55 am 02:55 Cloudy 42 5.5 37 2.6 82 82 N 10 17 30.15 1021 10 16.0934 0 0
3:15 am 03:15 Mostly Cloudy 42 5.5 37 2.6 82 82 N 9 15 30.15 1021 10 16.0934 0 0
3:35 am 03:35 Mostly Cloudy 42 5.5 37 2.5 81 81 N 6 9 30.18 1022 10 16.0934 0 0
3:55 am 03:55 Cloudy 42 5.5 37 2.6 82 82 N 6 9 30.18 1022 10 16.0934 0 0
4:15 am 04:15 Cloudy 41 5.2 37 2.7 84 84 N 5 7 30.18 1022 10 16.0934 0 0
4:35 am 04:35 Cloudy 41 5 37 2.7 85 85 NNW 6 9 30.18 1022 10 16.0934 0 0
4:55 am 04:55 Cloudy 40 4.7 37 2.6 86 86 NNW 3 6 30.24 1024 10 16.0934 0 0
5:15 am 05:15 Cloudy 40 4.7 37 2.5 86 86 N 5 7 30.24 1024 10 16.0934 0 0
5:35 am 05:35 Cloudy 40 4.6 37 2.6 87 87 NNW 6 9 30.24 1024 10 16.0934 0 0
5:55 am 05:55 Cloudy 40 4.6 37 2.5 86 86 N 6 9 30.21 1023 10 16.0934 0 0
6:15 am 06:15 Cloudy 40 4.5 37 2.5 87 87 N 6 9 30.21 1023 10 16.0934 0 0
6:35 am 06:35 Mostly Cloudy 40 4.7 37 2.5 86 86 NNE 8 13 30.21 1023 10 16.0934 0 0
6:55 am 06:55 Partly Cloudy 41 4.8 36 2.3 84 84 NNE 10 17 30.21 1023 10 16.0934 0 0
7:15 am 07:15 Partly Cloudy 41 4.8 36 2.3 84 84 NNE 12 19 30.15 1021 10 16.0934 0 0
7:35 am 07:35 Sunny 40 4.7 36 2.3 85 85 NNE 10 17 30.15 1021 10 16.0934 0 0
7:55 am 07:55 Sunny 40 4.7 36 2.3 85 85 N 7 11 30.21 1023 10 16.0934 0 0
8:15 am 08:15 Mostly Cloudy 40 4.6 37 2.5 86 86 N 6 9 30.24 1024 10 16.0934 0 0
8:35 am 08:35 Mostly Cloudy 40 4.7 37 2.6 86 86 N 3 6 30.24 1024 10 16.0934 0 0
8:55 am 08:55 Cloudy 41 5 37 2.8 86 86 NE 3 6 30.24 1024 10 16.0934 0 0
9:15 am 09:15 Cloudy 41 5.2 37 3 86 86 NNE 5 7 30.21 1023 10 16.0934 0 0
9:35 am 09:35 Partly Cloudy 42 5.6 37 3 84 84 NNE 7 11 30.21 1023 10 16.0934 0 0
9:55 am 09:55 Sunny 43 6 37 3 81 81 NNE 7 11 30.21 1023 10 16.0934 0 0
10:15 am 10:15 Sunny 44 6.4 38 3.1 80 80 NE 8 13 30.21 1023 10 16.0934 0 0
10:35 am 10:35 Sunny 44 6.4 37 3 79 79 NE 10 17 30.18 1022 10 16.0934 0 0
10:55 am 10:55 Partly Cloudy 44 6.7 38 3.3 79 79 NE 10 17 30.18 1022 10 16.0934 0 0
11:15 am 11:15 Sunny 46 7.8 38 3.6 75 75 NE 9 15 30.21 1023 10 16.0934 0 0
11:35 am 11:35 Partly Cloudy 47 8.3 38 3.5 72 72 ENE 10 17 30.15 1021 10 16.0934 0 0
11:55 am 11:55 Mostly Cloudy 48 8.9 37 2.6 65 65 E 8 13 30.18 1022 10 16.0934 0 0
12:15 pm 12:15 Mostly Cloudy 48 8.7 37 2.6 66 66 NE 7 11 30.18 1022 10 16.0934 0 0
12:35 pm 12:35 Mostly Cloudy 48 9.1 37 2.8 65 65 E 8 13 30.18 1022 10 16.0934 0 0
12:55 pm 12:55 Cloudy 48 9.1 37 2.6 64 64 ENE 5 7 30.18 1022 10 16.0934 0 0
1:15 pm 13:15 Cloudy 49 9.2 37 2.7 64 64 NE 6 9 30.15 1021 10 16.0934 0 0
1:35 pm 13:35 Cloudy 48 9.1 37 2.5 64 64 E 5 7 30.15 1021 10 16.0934 0 0
1:55 pm 13:55 Cloudy 48 9.1 37 2.5 64 64 ENE 3 6 30.15 1021 10 16.0934 0 0
2:15 pm 14:15 Cloudy 48 9 37 2.5 64 64 E 5 7 30.15 1021 10 16.0934 0 0
2:35 pm 14:35 Cloudy 48 9 37 3 66 66 ESE 8 13 30.15 1021 10 16.0934 0 0
2:55 pm 14:55 Cloudy 47 8.4 39 4 74 74 SE 9 15 30.15 1021 10 16.0934 0 0
3:15 pm 15:15 Cloudy 47 8.2 39 4.1 76 76 E 8 13 30.12 1020 10 16.0934 0 0
3:35 pm 15:35 Cloudy 46 7.9 39 3.9 76 76 ESE 7 11 30.12 1020 10 16.0934 0 0
3:55 pm 15:55 Cloudy 47 8.1 39 4.1 76 76 E 8 13 30.12 1020 10 16.0934 0 0
4:15 pm 16:15 Cloudy 46 7.7 39 4 78 78 ESE 7 11 30.12 1020 10 16.0934 0 0
4:35 pm 16:35 Cloudy 46 7.7 39 3.9 77 77 E 7 11 30.12 1020 10 16.0934 0 0
4:55 pm 16:55 Cloudy 46 7.6 39 3.8 77 77 ESE 8 13 30.09 1019 10 16.0934 0 0
5:15 pm 17:15 Cloudy 46 7.6 39 3.7 77 77 E 9 15 30.09 1019 10 16.0934 0 0
5:35 pm 17:35 Cloudy 46 7.5 39 3.9 78 78 SE 9 15 30.15 1021 10 16.0934 0 0
5:55 pm 17:55 Cloudy 45 7.2 39 3.9 80 80 ESE 7 11 30.15 1021 10 16.0934 0 0
6:15 pm 18:15 Cloudy 45 7 39 4 81 81 E 6 9 30.12 1020 10 16.0934 0 0
6:35 pm 18:35 Cloudy 45 7 39 3.8 80 80 E 6 9 30.12 1020 10 16.0934 0 0
6:55 pm 18:55 Cloudy 46 7.5 38 3.5 76 76 E 6 9 30.06 1018 10 16.0934 0 0
7:15 pm 19:15 Cloudy 44 6.5 40 4.4 87 87 ESE 8 13 30.15 1021 7 11.26538 0 0
7:35 pm 19:35 Cloudy with Light Rain 43 6.3 40 4.4 88 88 ESE 6 9 30.15 1021 5 8.0467 0 0
7:55 pm 19:55 Cloudy with Rain 43 6.2 40 4.5 89 89 SE 7 11 30.15 1021 4 6.43736 0 0
8:15 pm 20:15 Cloudy with Drizzle 43 6.1 40 4.6 90 90 ESE 9 15 30.15 1021 5 8.0467 0.01 0.254
8:35 pm 20:35 Cloudy with Light Drizzle 43 6 40 4.7 91 91 ESE 5 7 30.12 1020 5 8.0467 0.01 0.254
8:55 pm 20:55 Cloudy with Light Drizzle 43 6 41 4.8 92 92 ESE 6 9 30.12 1020 4 6.43736 0.01 0.254
9:15 pm 21:15 Cloudy with Mist and Fog 43 6 40 4.7 91 91 SSE 6 9 30.15 1021 5 8.0467 0 0
9:35 pm 21:35 Cloudy with Mist and Fog 43 6 41 4.8 92 92 SE 7 11 30.12 1020 4 6.43736 0 0
9:55 pm 21:55 Cloudy with Mist and Fog 43 6 41 4.8 92 92 ESE 8 13 30.12 1020 4 6.43736 0 0
10:15 pm 22:15 Cloudy with Mist and Fog 43 6 40 4.7 91 91 ESE 9 15 30.12 1020 5 8.0467 0 0
10:35 pm 22:35 Cloudy with Mist and Fog 42 5.8 40 4.6 92 92 ESE 9 15 30.12 1020 5 8.0467 0 0
10:55 pm 22:55 Cloudy with Light Rain 43 5.9 40 4.7 92 92 SE 9 15 30.12 1020 4 6.43736 0 0
11:15 pm 23:15 Cloudy with Mist and Fog 42 5.8 40 4.7 93 93 SE 8 13 30.12 1020 3 4.82802 0 0
11:35 pm 23:35 Cloudy with Mist and Fog 42 5.5 40 4.6 94 94 SE 9 15 30.09 1019 1 1.60934 0 0
11:55 pm 23:55 Cloudy with Mist and Fog 42 5.5 40 4.5 93 93 SSE 10 17 30.09 1019 0.75 1.207005 0 0

Powered by AerisWeather